Location: Terra Rouge Observatory
(46.0000°N, 62.7500°W)
Time: 14:57:00
(UTC-03:00)

NOSS 3-1 (A) - Visible Passes

Search period start: 20 October 2014 00:00
Search period end: 30 October 2014 00:00
Orbit: 892 x 1321 km, 63.4° (Epoch: 19 October)

Date Brightness Start Highest point End Pass type
(mag) Time Alt. Az. Time Alt. Az. Time Alt. Az.
20 Oct 6.1 02:10:28 14° NNE 02:10:28 14° NNE 02:11:29 10° NNE visible
20 Oct 5.5 03:57:55 19° NNW 03:58:14 19° N 04:03:14 10° NE visible
20 Oct 5.6 05:46:23 10° NNW 05:51:55 24° NNE 05:57:51 10° ENE visible
21 Oct 5.7 03:14:40 19° N 03:14:40 19° N 03:18:06 10° NNE visible
21 Oct 5.7 05:02:07 12° NNW 05:06:31 21° NNE 05:11:55 10° ENE visible
21 Oct 5.0 06:52:40 10° NNW 06:59:31 42° NE 07:06:57 10° ESE visible
22 Oct 6.0 02:31:27 16° NNE 02:31:27 16° NNE 02:33:10 10° NNE visible
22 Oct 5.6 04:18:53 17° NNW 04:21:04 19° N 04:26:07 10° NE visible
22 Oct 5.3 06:08:02 10° NNW 06:14:25 33° NNE 06:21:19 10° E visible
23 Oct 6.4 01:48:14 11° NNE 01:48:14 11° NNE 01:48:23 10° NNE visible
23 Oct 5.7 03:35:41 19° N 03:35:41 19° N 03:40:32 10° NE visible
23 Oct 5.5 05:23:20 10° NNW 05:29:11 26° NNE 05:35:29 10° E visible
24 Oct 5.9 02:52:29 17° NNE 02:52:29 17° NNE 02:55:14 10° NE visible
24 Oct 5.7 04:39:56 15° NNW 04:43:51 22° NNE 04:49:34 10° ENE visible
24 Oct 4.8 06:29:31 10° NNW 06:36:36 50° NE 06:44:17 10° ESE visible
25 Oct 6.3 02:09:19 13° NNE 02:09:19 13° NNE 02:10:11 10° NNE visible
25 Oct 5.6 03:56:46 18° N 03:58:26 20° N 04:03:40 10° NE visible
25 Oct 5.1 05:44:53 10° NNW 05:51:34 38° NE 05:58:48 10° ESE visible
26 Oct 5.8 03:13:38 19° N 03:13:38 19° N 03:17:56 10° NE visible
26 Oct 5.4 05:01:05 13° NNW 05:06:25 30° NNE 05:13:05 10° E visible
26 Oct 4.2 06:51:00 10° NW 06:58:27 82° NE 07:06:32 10° SE visible
27 Oct 6.1 02:30:33 15° NNE 02:30:33 15° NNE 02:32:27 10° NE visible
27 Oct 5.6 04:18:00 19° NNW 04:21:09 25° NNE 04:27:13 10° ENE visible
27 Oct 4.5 06:06:21 10° NW 06:13:38 60° NE 06:21:32 10° SE visible
28 Oct 5.7 03:34:58 21° N 03:35:47 21° NNE 03:41:17 10° ENE visible
28 Oct 4.9 05:22:25 13° NNW 05:28:41 45° NE 05:36:13 10° ESE visible
29 Oct 6.0 02:51:59 18° NNE 02:51:59 18° NNE 02:55:26 10° NE visible
29 Oct 5.2 04:39:27 20° NNW 04:43:36 34° NNE 04:50:38 10° E visible
29 Oct 4.0 06:27:54 10° NW 06:35:22 83° SW 06:43:26 10° SSE visible
